Météo Nord-Pas-de-Calais   La météo au plus près de chez vous

Station météorologique

Observations météo à Quimper (29216)

29216001 82 m Dernier relevé à 08:36
15.6°C
Humidité 75 % Vent 9.4 km/h 1020.5 hPa

Journée consultée

Dimanche 6 Septembre 2026

Synthèse de la journée

Périodes de référence en UTC

Température maximale

15.6°C

à 08:36

06h 06h

Température minimale

14.6°C

à 06:36

18h 18h

Rafale maximale

17 km/h

à 03:48

00h 00h

Précipitations

0 mm

Cumul quotidien

06h 06h

Ensoleillement

0h 3 mins

Durée quotidienne

00h 00h

Graphiques de la journée

Heure locale Réduire

Données détaillées

Relevés météo

Pas de 6 minutes Afficher les relevés infra-horaires
Relevés météo détaillés à Quimper pour le Dimanche 6 Septembre 2026
Heure Température °C Point de rosée °C Humidité % Vent moyen (raf.), km/h Précipitations mm Température à 10 cm °C Température à 20 cm °C Température à 50 cm °C Visibilité m État du sol   Ensoleillement min Rayonnement global W/m² Pression hPa Nébulosité Octas
08:36 15.6 °C 11.6 °C 77 % 9 km/h (13 km/h) 0 mm0 mm 19.7 °C 20.2 °C 19.6 °C 60000 m 0   0 min 12.1 W/m² 1020.1 hPa
08:30 15.5 °C 11.3 °C 76 % 9 km/h (13 km/h) 0 mm0 mm 19.7 °C 20.2 °C 19.6 °C 60000 m 0   0 min 13.9 W/m² 1020 hPa
08:24 15.4 °C 11.4 °C 77 % 9 km/h (12 km/h) 0 mm0 mm 19.7 °C 20.2 °C 19.6 °C 60000 m 0   0 min 12.1 W/m² 1020.1 hPa
08:18 15.2 °C 11.2 °C 77 % 9 km/h (11 km/h) 0 mm0 mm 19.8 °C 20.2 °C 19.6 °C 60000 m 0   0 min 9.6 W/m² 1020.3 hPa
08:12 14.8 °C 11.2 °C 79 % 8 km/h (9 km/h) 0 mm0 mm 19.8 °C 20.2 °C 19.6 °C 60000 m 0   1 min 8.2 W/m² 1020.5 hPa
08:06 15.1 °C 11.1 °C 77 % 8 km/h (11 km/h) 0 mm0 mm 19.8 °C 20.2 °C 19.6 °C 60000 m 0   2 min 5.1 W/m² 1020.6 hPa
08:00 15.2 °C 11 °C 76 % 9 km/h (11 km/h) 0 mm0 mm 19.8 °C 20.2 °C 19.6 °C 60000 m 0   0 min 0 W/m² 1020.6 hPa 8 Octas
07:54 15.1 °C 10.9 °C 76 % 9 km/h (10 km/h) 0 mm0 mm 19.8 °C 20.2 °C 19.6 °C 60000 m 0   0 min 0 W/m² 1020.6 hPa
07:48 15.2 °C 11 °C 76 % 9 km/h (11 km/h) 0 mm0 mm 19.8 °C 20.2 °C 19.6 °C 60000 m 0   0 min 0 W/m² 1020.5 hPa
07:42 15.2 °C 10.8 °C 75 % 9 km/h (11 km/h) 0 mm0 mm 19.9 °C 20.3 °C 19.6 °C 60000 m 0   0 min 0 W/m² 1020.4 hPa
07:36 15.3 °C 10.9 °C 75 % 9 km/h (10 km/h) 0 mm0 mm 19.9 °C 20.3 °C 19.6 °C 60000 m 0   0 min 0 W/m² 1020.5 hPa
07:30 15.1 °C 10.7 °C 75 % 10 km/h (12 km/h) 0 mm0 mm 19.9 °C 20.3 °C 19.6 °C 60000 m 0   0 min 0 W/m² 1020.6 hPa
07:24 15.2 °C 11 °C 76 % 10 km/h (12 km/h) 0 mm0 mm 19.9 °C 20.3 °C 19.6 °C 60000 m 0   0 min 0 W/m² 1020.6 hPa
07:18 15.2 °C 11 °C 76 % 10 km/h (12 km/h) 0 mm0 mm 19.9 °C 20.4 °C 19.6 °C 60000 m 0   0 min 0 W/m² 1020.6 hPa
07:12 15.1 °C 10.9 °C 76 % 11 km/h (13 km/h) 0 mm0 mm 20 °C 20.4 °C 19.6 °C 60000 m 0   0 min 0 W/m² 1020.6 hPa
07:06 15 °C 11 °C 77 % 12 km/h (14 km/h) 0 mm0 mm 19.9 °C 20.3 °C 19.6 °C 60000 m 0   0 min 0 W/m² 1020.6 hPa
07:00 14.8 °C 10.8 °C 77 % 11 km/h (14 km/h) 0 mm0 mm 20 °C 20.4 °C 19.6 °C 60000 m 0   0 min 0 W/m² 1020.7 hPa
06:54 14.8 °C 10.8 °C 77 % 10 km/h (12 km/h) 0 mm0 mm 20 °C 20.4 °C 19.6 °C 60000 m 0   0 min 0 W/m² 1020.8 hPa
06:48 14.7 °C 10.9 °C 78 % 10 km/h (11 km/h) 0 mm0 mm 20.1 °C 20.4 °C 19.6 °C 60000 m 0   0 min 0 W/m² 1020.8 hPa
06:42 14.8 °C 10.8 °C 77 % 9 km/h (10 km/h) 0 mm0 mm 20.1 °C 20.4 °C 19.6 °C 60000 m 0   0 min 0 W/m² 1020.9 hPa
06:36 14.6 °C 10.6 °C 77 % 7 km/h (10 km/h) 0 mm0 mm 20.1 °C 20.4 °C 19.6 °C 60000 m 0   0 min 0 W/m² 1020.9 hPa
06:30 14.8 °C 10.8 °C 77 % 7 km/h (10 km/h) 0 mm0 mm 20.1 °C 20.4 °C 19.6 °C 60000 m 0   0 min 0 W/m² 1020.9 hPa
06:24 14.9 °C 10.7 °C 76 % 7 km/h (9 km/h) 0 mm0 mm 20.1 °C 20.5 °C 19.6 °C 60000 m 0   0 min 0 W/m² 1020.9 hPa
06:18 15 °C 10.8 °C 76 % 6 km/h (8 km/h) 0 mm0 mm 20.1 °C 20.4 °C 19.5 °C 60000 m 0   0 min 0 W/m² 1020.9 hPa
06:12 15.1 °C 10.9 °C 76 % 8 km/h (9 km/h) 0 mm0 mm 20.2 °C 20.5 °C 19.6 °C 60000 m 0   0 min 0 W/m² 1020.9 hPa
06:06 15.2 °C 10.8 °C 75 % 8 km/h (9 km/h) 0 mm0 mm 20.2 °C 20.5 °C 19.6 °C 60000 m 0   0 min 0 W/m² 1020.8 hPa
06:00 14.9 °C 10.7 °C 76 % 8 km/h (9 km/h) 0 mm0 mm 20.2 °C 20.5 °C 19.6 °C 60000 m 0   0 min 0 W/m² 1021 hPa
05:54 15.2 °C 10.6 °C 74 % 9 km/h (13 km/h) 0 mm0 mm 20.2 °C 20.5 °C 19.6 °C 60000 m 0   0 min 0 W/m² 1020.9 hPa
05:48 15.5 °C 10.9 °C 74 % 11 km/h (13 km/h) 0 mm0 mm 20.2 °C 20.5 °C 19.6 °C 60000 m 0   0 min 0 W/m² 1020.7 hPa
05:42 15.5 °C 10.9 °C 74 % 12 km/h (16 km/h) 0 mm0 mm 20.3 °C 20.6 °C 19.6 °C 60000 m 0   0 min 0 W/m² 1020.5 hPa
05:36 15.6 °C 10.8 °C 73 % 13 km/h (16 km/h) 0 mm0 mm 20.3 °C 20.6 °C 19.6 °C 60000 m 0   0 min 0 W/m² 1020.6 hPa
05:30 15.7 °C 10.9 °C 73 % 12 km/h (15 km/h) 0 mm0 mm 20.3 °C 20.6 °C 19.6 °C 60000 m 0   0 min 0 W/m² 1020.7 hPa
05:24 15.9 °C 11.1 °C 73 % 12 km/h (15 km/h) 0 mm0 mm 20.4 °C 20.6 °C 19.6 °C 60000 m 0   0 min 0 W/m² 1020.8 hPa
05:18 15.9 °C 11.3 °C 74 % 13 km/h (16 km/h) 0 mm0 mm 20.4 °C 20.6 °C 19.6 °C 60000 m 0   0 min 0 W/m² 1020.8 hPa
05:12 15.7 °C 11.1 °C 74 % 13 km/h (16 km/h) 0 mm0 mm 20.4 °C 20.6 °C 19.6 °C 60000 m 0   0 min 0 W/m² 1020.9 hPa
05:06 15.6 °C 11 °C 74 % 12 km/h (15 km/h) 0 mm0 mm 20.4 °C 20.6 °C 19.6 °C 60000 m 0   0 min 0 W/m² 1021.1 hPa
05:00 15.5 °C 11.1 °C 75 % 12 km/h (16 km/h) 0 mm0 mm 20.4 °C 20.6 °C 19.5 °C 60000 m 0   0 min 0 W/m² 1021.3 hPa
04:54 15.5 °C 11.1 °C 75 % 12 km/h (15 km/h) 0 mm0 mm 20.5 °C 20.6 °C 19.6 °C 60000 m 0   0 min 0 W/m² 1021.4 hPa
04:48 15.5 °C 11.3 °C 76 % 11 km/h (14 km/h) 0 mm0 mm 20.5 °C 20.7 °C 19.6 °C 60000 m 0   0 min 0 W/m² 1021.6 hPa
04:42 15.6 °C 11.2 °C 75 % 11 km/h (14 km/h) 0 mm0 mm 20.5 °C 20.7 °C 19.5 °C 60000 m 0   0 min 0 W/m² 1021.8 hPa
04:36 15.6 °C 11.2 °C 75 % 12 km/h (16 km/h) 0 mm0 mm 20.5 °C 20.7 °C 19.5 °C 60000 m 0   0 min 0 W/m² 1021.7 hPa
04:30 15.5 °C 11.3 °C 76 % 11 km/h (16 km/h) 0 mm0 mm 20.5 °C 20.7 °C 19.5 °C 60000 m 0   0 min 0 W/m² 1021.9 hPa
04:24 15.7 °C 11.3 °C 75 % 11 km/h (13 km/h) 0 mm0 mm 20.6 °C 20.7 °C 19.5 °C 60000 m 0   0 min 0 W/m² 1022 hPa
04:18 15.8 °C 11.4 °C 75 % 11 km/h (15 km/h) 0 mm0 mm 20.6 °C 20.7 °C 19.5 °C 60000 m 0   0 min 0 W/m² 1022 hPa
04:12 15.9 °C 11.5 °C 75 % 12 km/h (15 km/h) 0 mm0 mm 20.6 °C 20.7 °C 19.5 °C 60000 m 0   0 min 0 W/m² 1021.8 hPa
04:06 15.7 °C 11.5 °C 76 % 12 km/h (15 km/h) 0 mm0 mm 20.6 °C 20.7 °C 19.5 °C 60000 m 0   0 min 0 W/m² 1022 hPa
04:00 15.9 °C 11.7 °C 76 % 12 km/h (14 km/h) 0 mm0 mm 20.7 °C 20.8 °C 19.5 °C 60000 m 0   0 min 0 W/m² 1021.9 hPa
03:54 15.9 °C 11.7 °C 76 % 13 km/h (15 km/h) 0 mm0 mm 20.7 °C 20.8 °C 19.5 °C 60000 m 0   0 min 0 W/m² 1022 hPa
03:48 15.7 °C 11.9 °C 78 % 13 km/h (17 km/h) 0 mm0 mm 20.7 °C 20.8 °C 19.5 °C 60000 m 0   0 min 0 W/m² 1022.1 hPa
03:42 15.7 °C 11.9 °C 78 % 12 km/h (15 km/h) 0 mm0 mm 20.7 °C 20.8 °C 19.5 °C 60000 m 0   0 min 0 W/m² 1022.3 hPa
03:36 15.7 °C 12.1 °C 79 % 12 km/h (14 km/h) 0 mm0 mm 20.8 °C 20.8 °C 19.5 °C 60000 m 0   0 min 0 W/m² 1022.4 hPa
03:30 15.8 °C 12 °C 78 % 12 km/h (14 km/h) 0 mm0 mm 20.8 °C 20.8 °C 19.5 °C 60000 m 0   0 min 0 W/m² 1022.5 hPa
03:24 16 °C 12.2 °C 78 % 12 km/h (14 km/h) 0 mm0 mm 20.8 °C 20.8 °C 19.5 °C 60000 m 0   0 min 0 W/m² 1022.5 hPa
03:18 15.9 °C 12.3 °C 79 % 11 km/h (14 km/h) 0 mm0 mm 20.8 °C 20.8 °C 19.5 °C 60000 m 0   0 min 0 W/m² 1022.7 hPa
03:12 16 °C 12.4 °C 79 % 10 km/h (12 km/h) 0 mm0 mm 20.8 °C 20.8 °C 19.5 °C 60000 m 0   0 min 0 W/m² 1022.7 hPa
03:06 16 °C 12.5 °C 80 % 10 km/h (12 km/h) 0 mm0 mm 20.8 °C 20.9 °C 19.5 °C 60000 m 0   0 min 0 W/m² 1022.8 hPa
03:00 16.1 °C 12.6 °C 80 % 8 km/h (11 km/h) 0 mm0 mm 20.9 °C 20.9 °C 19.5 °C 60000 m 0   0 min 0 W/m² 1023 hPa 8 Octas
02:54 16.2 °C 12.7 °C 80 % 8 km/h (10 km/h) 0 mm0 mm 20.9 °C 20.9 °C 19.5 °C 60000 m 0   0 min 0 W/m² 1023.1 hPa
02:48 16.2 °C 12.9 °C 81 % 9 km/h (12 km/h) 0 mm0 mm 20.9 °C 20.9 °C 19.5 °C 60000 m 0   0 min 0 W/m² 1023.1 hPa
02:42 16.2 °C 12.9 °C 81 % 9 km/h (12 km/h) 0 mm0 mm 21 °C 20.9 °C 19.5 °C 60000 m 0   0 min 0 W/m² 1023 hPa
02:36 16.2 °C 13.1 °C 82 % 10 km/h (15 km/h) 0 mm0 mm 21 °C 20.9 °C 19.5 °C 60000 m 0   0 min 0 W/m² 1023.1 hPa
02:30 16.2 °C 12.9 °C 81 % 12 km/h (15 km/h) 0 mm0 mm 21 °C 20.9 °C 19.5 °C 60000 m 0   0 min 0 W/m² 1023 hPa
02:24 16.2 °C 13.1 °C 82 % 11 km/h (15 km/h) 0 mm0 mm 21 °C 20.9 °C 19.5 °C 60000 m 0   0 min 0 W/m² 1023 hPa
02:18 16.2 °C 13.1 °C 82 % 10 km/h (15 km/h) 0 mm0 mm 21.1 °C 21 °C 19.5 °C 60000 m 0   0 min 0 W/m² 1023.2 hPa
02:12 16.1 °C 13.2 °C 83 % 11 km/h (15 km/h) 0 mm0 mm 21.1 °C 21 °C 19.5 °C 60000 m 0   0 min 0 W/m² 1023.2 hPa
02:06 16.1 °C 13.2 °C 83 % 12 km/h (15 km/h) 0 mm0 mm 21.1 °C 21 °C 19.5 °C 60000 m 0   0 min 0 W/m² 1023.2 hPa
02:00 16 °C 13.3 °C 84 % 11 km/h (15 km/h) 0 mm0 mm 21.2 °C 21 °C 19.5 °C 60000 m 0   0 min 0 W/m² 1023.4 hPa 7 Octas
01:54 16 °C 13.1 °C 83 % 11 km/h (13 km/h) 0 mm0 mm 21.2 °C 21 °C 19.5 °C 60000 m 0   0 min 0 W/m² 1023.5 hPa
01:48 16 °C 13.1 °C 83 % 10 km/h (13 km/h) 0 mm0 mm 21.2 °C 21 °C 19.5 °C 60000 m 0   0 min 0 W/m² 1023.5 hPa
01:42 16 °C 13.1 °C 83 % 10 km/h (13 km/h) 0 mm0 mm 21.2 °C 21 °C 19.5 °C 60000 m 0   0 min 0 W/m² 1023.6 hPa
01:36 16 °C 13.1 °C 83 % 10 km/h (13 km/h) 0 mm0 mm 21.3 °C 21.1 °C 19.5 °C 60000 m 0   0 min 0 W/m² 1023.5 hPa
01:30 16 °C 13.1 °C 83 % 10 km/h (13 km/h) 0 mm0 mm 21.3 °C 21 °C 19.5 °C 60000 m 0   0 min 0 W/m² 1023.6 hPa
01:24 16 °C 13.1 °C 83 % 9 km/h (11 km/h) 0 mm0 mm 21.3 °C 21.1 °C 19.5 °C 60000 m 0   0 min 0 W/m² 1023.6 hPa
01:18 16.1 °C 13.2 °C 83 % 9 km/h (11 km/h) 0 mm0 mm 21.4 °C 21.1 °C 19.5 °C 60000 m 0   0 min 0 W/m² 1023.6 hPa
01:12 16.1 °C 13.2 °C 83 % 9 km/h (11 km/h) 0 mm0 mm 21.4 °C 21.1 °C 19.5 °C 60000 m 0   0 min 0 W/m² 1023.6 hPa
01:06 16 °C 13.3 °C 84 % 10 km/h (12 km/h) 0 mm0 mm 21.4 °C 21.1 °C 19.5 °C 60000 m 0   0 min 0 W/m² 1023.6 hPa
01:00 16 °C 13.3 °C 84 % 10 km/h (13 km/h) 0 mm0 mm 21.5 °C 21.1 °C 19.5 °C 59840 m 0   0 min 0 W/m² 1023.6 hPa
00:54 15.8 °C 13.3 °C 85 % 10 km/h (13 km/h) 0 mm0 mm 21.5 °C 21.2 °C 19.5 °C 58170 m 0   0 min 0 W/m² 1023.7 hPa
00:48 15.6 °C 13.4 °C 87 % 10 km/h (13 km/h) 0 mm0 mm 21.5 °C 21.2 °C 19.5 °C 55100 m 0   0 min 0 W/m² 1023.7 hPa
00:42 15.4 °C 13.4 °C 88 % 8 km/h (12 km/h) 0 mm0 mm 21.5 °C 21.2 °C 19.5 °C 52520 m 0   0 min 0 W/m² 1023.8 hPa
00:36 15.4 °C 13.4 °C 88 % 8 km/h (11 km/h) 0 mm0 mm 21.6 °C 21.2 °C 19.5 °C 50480 m 0   0 min 0 W/m² 1023.8 hPa
00:30 15.5 °C 13.3 °C 87 % 8 km/h (11 km/h) 0 mm0 mm 21.6 °C 21.2 °C 19.5 °C 50030 m 0   0 min 0 W/m² 1023.7 hPa
00:24 15.6 °C 13.4 °C 87 % 8 km/h (9 km/h) 0 mm0 mm 21.6 °C 21.2 °C 19.5 °C 52110 m 0   0 min 0 W/m² 1023.7 hPa
00:18 15.7 °C 13.4 °C 86 % 6 km/h (9 km/h) 0 mm0 mm 21.7 °C 21.2 °C 19.5 °C 53610 m 0   0 min 0 W/m² 1023.8 hPa
00:12 15.6 °C 13.4 °C 87 % 6 km/h (9 km/h) 0 mm0 mm 21.7 °C 21.2 °C 19.5 °C 53100 m 0   0 min 0 W/m² 1024 hPa
00:06 15.6 °C 13.4 °C 87 % 8 km/h (10 km/h) 0 mm0 mm 21.7 °C 21.2 °C 19.5 °C 52860 m 0   0 min 0 W/m² 1023.9 hPa
00:00 15.4 °C 13.2 °C 87 % 9 km/h (13 km/h) 0 mm0 mm 21.8 °C 21.2 °C 19.5 °C 52020 m 0   0 min 0 W/m² 1024 hPa

Données via Météo-France

Relevés météo à Quimper

Cette page rassemble les observations de la station de Quimper : température, humidité, vent, précipitations et pression atmosphérique. Les graphiques facilitent le suivi de la journée, tandis que le tableau donne accès aux mesures horaires et infra-horaires disponibles.

Pour replacer ces mesures dans leur contexte, consultez la climatologie de Quimper ainsi que ses normales et records. Retrouvez aussi la carte des observations météo en temps réel.